Regional Weather Roundup
Issued by NWS

Home | Current Version | Previous Version | Graphics & Text | Print | Product List | Glossary On
Versions: 1 2 3 4 5 6 7 8 9 10 11 12 13 14 15 16 17 18 19 20 21 22 23 24 25 26 27 28 29 30 31 32 33 34 35 36 37 38 39 40 41 42 43 44 45 46 47 48 49 50
000
ASUS45 KBOU 051907
RWRCO

WEATHER ROUNDUP FOR COLORADO
NATIONAL WEATHER SERVICE DENVER/BOULDER CO
100 PM MDT TUE MAY 05 2015

NOTE: "FAIR" INDICATES FEW OR NO CLOUDS BELOW 12000 FEET WITH NO
SIGNIFICANT WEATHER AND/OR OBSTRUCTIONS TO VISIBILITY.

COZ001>005-013-030-031-052000-
...NORTHWEST COLORADO...

CITY           SKY/WX    TMP DP  RH WIND       PRES   REMARKS
CRAIG          PTSUNNY   67  40  37 VRB6      29.83F
HAYDEN         NOT AVBL
MEEKER         CLOUDY    63  41  44 W8        29.83F
MOUNT WERNER   NOT AVBL
STEAMBOAT SPGS PTSUNNY   62  38  40 SW6       29.84F
WALDEN         CLOUDY    55  32  41 SE3       29.91F
$$

COZ006>008-011-052000-
...WEST CENTRAL VALLEYS...

CITY           SKY/WX    TMP DP  RH WIND       PRES   REMARKS
GRAND JUNCTION LGT RAIN  63  45  51 CALM      29.81F
MONTROSE       CLOUDY    57  45  64 N8        29.88F
EAGLE          CLOUDY    64  37  36 SW5       29.83F
RIFLE          CLOUDY    63  43  48 W12       29.80F
DELTA          CLOUDY    60  49  68 CALM      29.85F
NUCLA          DRIZZLE   54  48  82 NW5       29.93F
$$

COZ017>023-064>068-052000-
...SOUTHWEST COLORADO...

CITY           SKY/WX    TMP DP  RH WIND       PRES   REMARKS
DURANGO        LGT RAIN  48  45  89 SW9       29.94S
CORTEZ         LGT RAIN  50  46  86 SW3       29.94S FOG
PAGOSA SPRINGS LGT RAIN  46  43  90 S5        29.97F
TELLURIDE      RAIN      41  41  98 W6        29.99F
WOLF CREEK PAS NOT AVBL
$$

COZ009-010-012-014-032>034-037-058>063-052000-
...CENTRAL COLORADO...

CITY           SKY/WX    TMP DP  RH WIND       PRES   REMARKS
ASPEN          CLOUDY    57  35  43 S10       29.87F
BUENA VISTA    NOT AVBL
COPPER MTN     CLOUDY    45  30  57 E7        30.09F
BERTHOUD PASS  HAZE      30  21  69 E7        30.14F VSB<1/4 WCI  23
COTTONWOOD PAS RAIN      43  41  93 E3        30.02S
GUNNISON       CLOUDY    48  39  71 W8        29.94F
KREMMLING      PTSUNNY   61  34  36 CALM      29.88F
LEADVILLE      LGT RAIN  42  33  70 CALM      29.98F
MONARCH PASS   CLOUDY    32  32 100 MISG      30.15S
SALIDA         CLOUDY    49  44  84 CALM      30.01F
SUNLIGHT       CLOUDY    43  36  75 W3        30.06F
WILKERSON PASS SNOW      34  32  93 E10G20    30.08F VSB 1/4 WCI  26
$$

COZ069>075-052000-
...SAN LUIS VALLEY/SANGRE DE CRISTO MOUNTAINS...

CITY           SKY/WX    TMP DP  RH WIND       PRES   REMARKS
ALAMOSA        CLOUDY    50  41  71 VRB5      29.93F
LA VETA PASS   CLOUDY    54  54 100 MISG      30.01F VSB 3/4
SAGUACHE       DRIZZLE   46  43  87 S6        29.95F
$$

COZ035-036-038>040-052000-
...NORTHERN COLORADO FRONT RANGE...

CITY           SKY/WX    TMP DP  RH WIND       PRES   REMARKS
DENVER INTL AP LGT RAIN  54  50  86 E15       29.91F FOG
DMNS CITY PARK   N/A     52  51  93 N3        29.91F
AURORA         LGT RAIN  53  53  99 SE12      29.93F FOG
FRONT RANGE AP RAIN      55  54  94 E9        29.93F
ERIE MUNI ARPT RAIN      53  51  95 N7        29.92F
BOULDER MUN AP CLOUDY    54  50  87 N5        29.92F FOG
CENTENNIAL     LGT RAIN  52  49  89 E10       29.92F FOG
BROOMFIELD     CLOUDY    54  50  87 N8        29.94F
FORT COLLINS   CLOUDY    50  48  93 N5        29.95F
LONGMONT       RAIN      56  51  81 N6        29.94F
$$

COZ041-046-047-076>085-087-088-052000-
...PIKES PEAK/PALMER DIVIDE AND SOUTHERN FOOTHILLS...

CITY           SKY/WX    TMP DP  RH WIND       PRES   REMARKS
COLO. SPRINGS  LGT RAIN  50  48  93 E15       29.93F FOG
A. F. ACADEMY  LGT RAIN  48  48 100 SE12      29.93F FOG
ELLICOTT       LGT RAIN N/A N/A N/A SE14      29.91F
FALCON         RAIN      47  47  97 SE16      29.96F
FORT CARSON    LGT RAIN  50  50  99 E14       29.90F
LIMON          RAIN      51  50  96 E14       29.92F FOG
MONUMENT HILL  RAIN      46  45  93 SE13      29.95F
TRINIDAD       CLOUDY    53  49  86 N5        29.85F
$$

COZ042>045-048>051-090-091-052000-
...NORTHEAST COLORADO...

CITY           SKY/WX    TMP DP  RH WIND       PRES   REMARKS
GREELEY ARPT   CLOUDY    54  45  71 SE13      29.94F
AKRON          LGT RAIN  50  50 100 E14       29.95F FOG
BURLINGTON     LGT RAIN  58  54  86 E16G22    29.90F
WRAY           LGT RAIN N/A N/A N/A E8        29.95F
STERLING       LGT RAIN  52  50  93 E5        29.95F
HOLYOKE        NOT AVBL
FORT MORGAN    RAIN      51  49  93 E13       29.96S
$$

COZ086-089-092>099-052000-
...SOUTHEAST COLORADO...

CITY           SKY/WX    TMP DP  RH WIND       PRES   REMARKS
PUEBLO         RAIN      54  52  93 E14       29.85F FOG
LA JUNTA       CLOUDY    60  54  80 E14       29.83F
LAMAR          RAIN      57  55  93 N3        29.80F FOG
SPRINGFIELD      N/A     57  53  86 S8        29.83F
$$


USA.gov is the U.S. government's official web portal to all federal, state and local government web resources and services.